Weather History for KIRS - December, 2012

Change the Weather History Date:

Monday, December 24, 2012

  Actual Average (KHAI) Record (KHAI)
Temperature  
Mean Temperature 28 °F -  
Max Temperature 33 °F 32 °F 56 °F (1982)
Min Temperature 23 °F 17 °F -14 °F (1983)
Degree Days  
Heating Degree Days 37    
Moisture  
Dew Point 24 °F    
Average Humidity 87    
Maximum Humidity 93    
Minimum Humidity 75    
Precipitation  
Precipitation 0.00 in - - ()
Sea Level Pressure  
Sea Level Pressure 29.88 in    
Wind  
Wind Speed 6 mph (ENE)    
Max Wind Speed 14 mph    
Max Gust Speed 17 mph    
Visibility 9 miles    
Events Snow    
Averages and records for this station are not official NWS values.
T = Trace of Precipitation, MM = Missing Value Source: NWS Daily Summary

Daily Weather History Graph

Daily Weather History Graph

Search for Another Location

Airport or City:

Trip Planner

Search our weather history database for the weather conditions in past years. The results will help you decide how hot, cold, wet, or windy it might be!

Date:

Astronomy

Dec. 24, 2012 Rise Set
Actual Time 8:07 AM EST 5:15 PM EST
Civil Twilight 7:35 AM EST 5:47 PM EST
Nautical Twilight 7:00 AM EST 6:22 PM EST
Astronomical Twilight 6:26 AM EST 6:56 PM EST
Moon 2:43 PM EST (12/24) 4:44 AM EST (12/24)
Length of Visible Light 10h 11m
Length of Day
9h 08m
Waxing Gibbous, 88% of the Moon is Illuminated
Dec 24
Waxing Gibbous
Dec 28
Full
Jan 4
Last Quarter
Jan 11
New
Jan 18
First Quarter

Hourly Weather History & Observations

Time (EST) Temp. Windchill Dew Point Humidity Pressure Visibility Wind Dir Wind Speed Gust Speed Precip Events Conditions
12:15 AM 24.8 °F 19.1 °F 21.2 °F 86% 29.96 in 10.0 mi ENE 4.6 mph - N/A   Clear
12:34 AM 24.8 °F 20.5 °F 19.4 °F 80% 29.96 in 10.0 mi East 3.5 mph - N/A   Clear
12:55 AM 24.8 °F 19.1 °F 19.4 °F 80% 29.96 in 10.0 mi ENE 4.6 mph - N/A   Clear
1:15 AM 23.0 °F 18.4 °F 19.4 °F 86% 29.96 in 10.0 mi East 3.5 mph - N/A   Clear
1:34 AM 23.0 °F - 19.4 °F 86% 29.97 in 10.0 mi Calm Calm - N/A   Clear
1:55 AM 23.0 °F - 21.2 °F 93% 29.97 in 10.0 mi Calm Calm - N/A   Clear
2:15 AM 23.0 °F - 19.4 °F 86% 29.96 in 10.0 mi Calm Calm - N/A   Clear
2:35 AM 23.0 °F 18.4 °F 19.4 °F 86% 29.96 in 10.0 mi East 3.5 mph - N/A   Clear
2:55 AM 24.8 °F 16.9 °F 21.2 °F 86% 29.95 in 10.0 mi East 6.9 mph - N/A   Clear
3:14 AM 24.8 °F 19.1 °F 21.2 °F 86% 29.94 in 10.0 mi East 4.6 mph - N/A   Clear
3:35 AM 24.8 °F 16.1 °F 21.2 °F 86% 29.93 in 10.0 mi East 8.1 mph - N/A   Clear
3:55 AM 24.8 °F 16.9 °F 21.2 °F 86% 29.92 in 10.0 mi East 6.9 mph - N/A   Clear
4:15 AM 24.8 °F 16.9 °F 21.2 °F 86% 29.91 in 10.0 mi East 6.9 mph - N/A   Clear
4:35 AM 24.8 °F 16.1 °F 21.2 °F 86% 29.90 in 10.0 mi East 8.1 mph - N/A   Clear
4:54 AM 24.8 °F 16.9 °F 21.2 °F 86% 29.89 in 10.0 mi East 6.9 mph - N/A   Clear
5:15 AM 24.8 °F 16.9 °F 21.2 °F 86% 29.88 in 10.0 mi East 6.9 mph - N/A   Clear
5:35 AM 24.8 °F 16.1 °F 21.2 °F 86% 29.88 in 10.0 mi East 8.1 mph - N/A   Clear
5:54 AM 24.8 °F 17.9 °F 21.2 °F 86% 29.88 in 10.0 mi East 5.8 mph - N/A   Clear
6:15 AM 24.8 °F 17.9 °F 21.2 °F 86% 29.88 in 10.0 mi East 5.8 mph - N/A   Clear
6:35 AM 24.8 °F 16.9 °F 21.2 °F 86% 29.87 in 10.0 mi East 6.9 mph - N/A   Clear
6:54 AM 24.8 °F 15.3 °F 21.2 °F 86% 29.86 in 10.0 mi East 9.2 mph - N/A   Clear
7:15 AM 24.8 °F 15.3 °F 21.2 °F 86% 29.85 in 10.0 mi East 9.2 mph - N/A   Clear
7:35 AM 26.6 °F 17.5 °F 23.0 °F 86% 29.86 in 10.0 mi East 9.2 mph - N/A   Clear
7:54 AM 26.6 °F 21.2 °F 23.0 °F 86% 29.86 in 10.0 mi East 4.6 mph - N/A   Clear
8:15 AM 24.8 °F - 21.2 °F 86% 29.87 in 10.0 mi Calm Calm - N/A   Clear
8:35 AM 24.8 °F 20.5 °F 23.0 °F 93% 29.87 in 10.0 mi East 3.5 mph - N/A   Clear
8:55 AM 26.6 °F - 23.0 °F 86% 29.87 in 10.0 mi Calm Calm - N/A   Clear
9:15 AM 26.6 °F 17.5 °F 24.8 °F 93% 29.85 in 10.0 mi East 9.2 mph - N/A   Clear
9:35 AM 28.4 °F 21.2 °F 24.8 °F 86% 29.85 in 10.0 mi East 6.9 mph - N/A   Clear
9:55 AM 28.4 °F 19.7 °F 24.8 °F 86% 29.85 in 10.0 mi East 9.2 mph - N/A   Clear
10:15 AM 30.2 °F 21.3 °F 26.6 °F 86% 29.85 in 10.0 mi East 10.4 mph - N/A   Clear
10:35 AM 30.2 °F 21.9 °F 26.6 °F 86% 29.85 in 10.0 mi East 9.2 mph - N/A   Clear
10:55 AM 32.0 °F 23.0 °F 26.6 °F 80% 29.85 in 10.0 mi East 11.5 mph 16.1 mph N/A   Clear
11:15 AM 32.0 °F 24.8 °F 26.6 °F 80% 29.86 in 10.0 mi East 8.1 mph - N/A   Mostly Cloudy
11:34 AM 32.0 °F 24.2 °F 26.6 °F 80% 29.84 in 10.0 mi East 9.2 mph - N/A   Mostly Cloudy
11:55 AM 32.0 °F 22.1 °F 26.6 °F 80% 29.80 in 10.0 mi East 13.8 mph 17.3 mph N/A   Scattered Clouds
12:15 PM 33.8 °F 24.8 °F 26.6 °F 75% 29.80 in 10.0 mi East 12.7 mph 16.1 mph N/A   Scattered Clouds
12:34 PM 32.0 °F 25.6 °F 26.6 °F 80% 29.81 in 10.0 mi ESE 6.9 mph - N/A   Mostly Cloudy
12:55 PM 32.0 °F 27.5 °F 26.6 °F 80% 29.80 in 10.0 mi East 4.6 mph - N/A   Overcast
1:15 PM 32.0 °F 27.5 °F 26.6 °F 80% 29.79 in 2.0 mi ENE 4.6 mph - N/A Snow Light Snow
1:34 PM 30.2 °F 26.7 °F 28.4 °F 93% 29.80 in 2.0 mi East 3.5 mph - N/A Snow Light Snow
1:55 PM 30.2 °F 26.7 °F 28.4 °F 93% 29.79 in 2.0 mi East 3.5 mph - N/A Snow Light Snow
2:15 PM 30.2 °F 25.4 °F 28.4 °F 93% 29.78 in 2.5 mi ESE 4.6 mph - N/A Snow Light Snow
2:34 PM 30.2 °F - 28.4 °F 93% 29.78 in 5.0 mi Calm Calm - N/A   Mostly Cloudy
2:55 PM 30.2 °F 26.7 °F 28.4 °F 93% 29.78 in 5.0 mi East 3.5 mph - N/A   Scattered Clouds
3:14 PM 30.2 °F - 28.4 °F 93% 29.79 in 7.0 mi Calm Calm - N/A   Scattered Clouds
3:35 PM 30.2 °F 26.7 °F 28.4 °F 93% 29.80 in 7.0 mi North 3.5 mph - N/A   Mostly Cloudy
3:55 PM 30.2 °F 26.7 °F 28.4 °F 93% 29.81 in 7.0 mi North 3.5 mph - N/A   Overcast
4:14 PM 30.2 °F 22.6 °F 28.4 °F 93% 29.82 in 7.0 mi NNE 8.1 mph - N/A   Overcast
4:35 PM 28.4 °F 20.4 °F 26.6 °F 93% 29.82 in 10.0 mi North 8.1 mph - N/A   Overcast
4:54 PM 28.4 °F 19.1 °F 26.6 °F 93% 29.82 in 10.0 mi NNE 10.4 mph - N/A   Overcast
5:15 PM 28.4 °F 20.4 °F 26.6 °F 93% 29.83 in 10.0 mi NNE 8.1 mph - N/A   Overcast
5:35 PM 28.4 °F 20.4 °F 26.6 °F 93% 29.85 in 10.0 mi NNE 8.1 mph - N/A   Overcast
5:54 PM 28.4 °F 20.4 °F 24.8 °F 86% 29.86 in 10.0 mi NNE 8.1 mph - N/A   Overcast
6:15 PM 28.4 °F 20.4 °F 24.8 °F 86% 29.87 in 10.0 mi NNE 8.1 mph - N/A   Overcast
6:35 PM 28.4 °F 21.2 °F 24.8 °F 86% 29.87 in 10.0 mi NNE 6.9 mph - N/A   Overcast
6:55 PM 28.4 °F 20.4 °F 24.8 °F 86% 29.89 in 10.0 mi NNE 8.1 mph - N/A   Overcast
7:15 PM 28.4 °F 24.6 °F 24.8 °F 86% 29.90 in 10.0 mi North 3.5 mph - N/A   Overcast
7:34 PM 28.4 °F 21.2 °F 24.8 °F 86% 29.91 in 10.0 mi North 6.9 mph - N/A   Overcast
7:55 PM 28.4 °F 22.2 °F 24.8 °F 86% 29.92 in 10.0 mi North 5.8 mph - N/A   Overcast
8:15 PM 28.4 °F 22.2 °F 24.8 °F 86% 29.93 in 10.0 mi North 5.8 mph - N/A   Overcast
8:34 PM 28.4 °F 22.2 °F 24.8 °F 86% 29.94 in 10.0 mi North 5.8 mph - N/A   Overcast
8:55 PM 28.4 °F 20.4 °F 24.8 °F 86% 29.94 in 10.0 mi North 8.1 mph - N/A   Overcast
9:15 PM 26.6 °F 18.2 °F 24.8 °F 93% 29.94 in 10.0 mi NNE 8.1 mph - N/A   Overcast
9:34 PM 26.6 °F 18.2 °F 24.8 °F 93% 29.95 in 10.0 mi North 8.1 mph - N/A   Overcast
9:55 PM 26.6 °F 20.0 °F 24.8 °F 93% 29.96 in 10.0 mi North 5.8 mph - N/A   Overcast
10:15 PM 26.6 °F 19.1 °F 24.8 °F 93% 29.97 in 10.0 mi North 6.9 mph - N/A   Overcast
10:34 PM 26.6 °F 19.1 °F 24.8 °F 93% 29.97 in 10.0 mi North 6.9 mph - N/A   Overcast
10:55 PM 26.6 °F 20.0 °F 24.8 °F 93% 29.98 in 10.0 mi North 5.8 mph - N/A   Overcast
11:15 PM 26.6 °F 17.5 °F 24.8 °F 93% 29.99 in 10.0 mi North 9.2 mph - N/A   Overcast
11:34 PM 26.6 °F 20.0 °F 23.0 °F 86% 30.00 in 10.0 mi North 5.8 mph - N/A   Overcast
11:55 PM 26.6 °F 21.2 °F 23.0 °F 86% 30.01 in 10.0 mi North 4.6 mph - N/A   Overcast